Probability
3 3 3 3 3 3 6 3 6 3 6 3 0 0 0 0 0 0 0 0 0 0 0 0 0 0 0 0 0 0 0 0 0 0 0 0 0 0 0 0 0 0 0
3 3 3 3 0 3 3 0 0 0 0 0 0 0 0 0 0 0 0 0 0 0 0 0 0 0 0 0 0 0 0 0 0 0 0 0 0 0 0 0 0 0 0
0 0 3 3 0 0 3 0 0 0 0 0 0 0 0 0 0 0 0 0 0 0 0 0 0 0 0 0 0 0 0 0 0 0 0 0 0 0 0 0 0 0 0
0 0 0 3 3 0 0 0 0 0 0 0 0 0 0 0 0 0 0 0 0 0 0 0 0 0 0 0 0 0 0 0 0 0 0 0 0 0 0 0 0 0 0
0 0 0 3 3 0 0 0 0 0 0 0 0 0 0 0 0 0 0 0 0 0 0 0 0 0 0 0 0 0 0 0 0 0 0 0 0 0 0 0 0 0 0
0 0 0 0 0 0 0 0 0 0 0 0 0 0 0 0 0 0 0 0 0 0 0 0 0 0 0 0 0 0 0 0 0 0 0 0 0 0 0 0 0 0 0
0 0 0 0 3 0 3 0 0 0 0 0 0 0 0 0 0 0 0 0 0 0 0 0 0 0 0 0 0 0 0 0 0 0 0 0 0 0 0 0 0 0 0
0 0 0 0 0 3 3 3 0 0 0 0 0 0 0 0 0 0 0 0 0 0 0 0 0 0 0 0 0 0 0 0 0 0 0 0 0 0 0 0 0 0 0
0 0 0 0 0 0 3 3 3 0 0 0 0 0 0 0 0 0 0 0 0 0 0 0 0 0 0 0 0 0 0 0 0 0 0 0 0 0 0 0 0 0 0
0 0 0 0 0 0 0 0 3 0 0 0 0 0 0 0 0 0 0 0 0 0 0 0 0 0 0 0 0 0 0 0 0 0 0 0 0 0 0 0 0 0 0
0 0 0 0 0 0 0 0 0 0 0 0 0 0 0 0 0 0 0 0 0 0 0 0 0 0 0 0 0 0 0 0 0 0 0 0 0 0 0 0 0 0 0
0 0 0 0 0 0 0 0 0 0 0 0 0 0 0 0 0 0 0 0 0 0 0 0 0 0 0 0 0 0 0 0 0 0 0 0 0 0 0 0 0 0 0
0 0 0 0 0 0 0 0 0 0 0 0 0 0 3 3 3 0 0 0 0 0 0 0 0 0 0 0 0 0 0 0 0 0 0 0 0 0 0 0 0 0 0
0 0 0 0 0 0 0 0 0 0 0 0 0 0 0 3 3 3 0 0 0 0 0 0 0 0 0 0 0 0 0 0 0 0 0 0 0 0 0 0 0 0 0
0 0 0 0 0 0 0 0 0 0 0 0 0 0 0 0 0 3 0 0 0 0 0 0 0 0 0 0 0 0 0 0 0 0 0 0 0 0 0 0 0 0 0
0 0 0 0 0 0 0 0 0 0 0 0 0 0 0 0 0 0 0 0 0 0 0 0 0 0 0 0 0 0 0 0 0 0 0 0 0 0 0 0 0 0 0
0 0 0 0 0 0 0 0 0 0 0 0 0 0 0 0 0 0 0 0 0 0 0 0 0 0 0 0 0 0 0 0 0 0 0 0 0 0 0 0 0 0 0
0 0 0 0 0 0 0 0 0 0 0 0 0 0 0 0 0 0 0 0 0 0 0 0 0 0 0 0 0 0 0 0 0 0 0 0 0 0 0 0 0 0 0
0 0 0 0 0 0 0 0 0 0 0 0 0 0 0 0 0 0 0 0 0 0 0 0 0 0 0 0 0 0 0 0 0 0 0 0 0 0 0 0 0 0 0
0 0 0 0 0 0 0 0 0 0 0 0 0 0 0 0 0 0 0 0 0 0 0 0 0 0 0 0 0 0 0 0 0 0 0 0 0 0 0 0 0 0 0
0 0 0 0 0 0 0 0 0 0 3 3 0 0 0 0 0 0 0 0 0 0 0 0 0 0 0 0 0 0 0 0 0 0 0 0 0 0 0 0 0 0 0
0 0 0 0 0 0 0 0 0 0 0 0 0 0 0 0 0 0 0 0 0 0 0 0 0 0 0 0 0 0 0 0 0 0 0 0 0 0 0 0 0 0 0
0 0 0 0 0 0 0 0 0 0 0 0 0 0 0 0 0 0 0 0 0 0 0 0 0 0 0 0 0 0 0 0 0 0 0 0 0 0 0 0 0 0 0
0 0 0 0 0 0 0 0 0 0 0 0 0 0 0 0 0 0 0 0 0 0 0 0 0 0 0 0 0 0 0 0 0 0 0 0 0 0 0 0 0 0 0
0 0 0 0 0 0 0 0 0 0 0 0 0 0 0 0 0 0 0 0 0 0 0 0 0 0 0 0 0 0 0 0 0 0 0 0 0 0 0 0 0 0 0
0 0 0 0 0 0 0 0 0 0 0 0 0 0 0 0 0 0 0 0 0 0 0 0 0 0 0 0 0 0 0 0 0 0 0 0 0 0 0 0 0 0 0
Height
5827 5827 5827 5828 5828 5828 5828 5828 5828 5828 5828 5828 5828 5828 5828 5828 5828 5829 5829 5829 5829 5830 5830 5830 5830 5830 5830 5830 5830 5830 5830 5830 5830 5830 5829 5829 5829 5829 5828 5828 5828 5828 5828
5824 5824 5824 5825 5825 5825 5824 5824 5824 5824 5824 5824 5825 5825 5825 5825 5825 5826 5826 5826 5826 5827 5827 5827 5827 5827 5827 5827 5827 5827 5827 5827 5827 5827 5826 5826 5826 5825 5825 5824 5824 5824 5824
5821 5821 5821 5822 5822 5821 5821 5821 5821 5820 5820 5821 5821 5821 5821 5821 5822 5822 5823 5823 5823 5823 5823 5824 5824 5824 5824 5824 5824 5823 5823 5823 5823 5823 5823 5822 5822 5821 5821 5820 5820 5820 5820
5818 5818 5818 5818 5818 5818 5818 5817 5817 5817 5816 5817 5817 5817 5817 5818 5818 5818 5819 5819 5819 5819 5820 5820 5820 5820 5820 5820 5820 5820 5820 5820 5819 5819 5819 5819 5818 5818 5817 5817 5816 5816 5816
5814 5814 5814 5814 5814 5814 5814 5814 5813 5813 5812 5812 5812 5813 5813 5813 5813 5814 5814 5814 5815 5815 5815 5815 5815 5816 5816 5816 5816 5816 5816 5815 5815 5815 5815 5814 5814 5813 5813 5813 5812 5812 5812
5811 5810 5810 5810 5810 5810 5810 5810 5809 5809 5808 5808 5808 5808 5808 5808 5809 5809 5809 5809 5810 5810 5810 5810 5811 5811 5811 5811 5811 5811 5811 5811 5811 5811 5810 5810 5809 5808 5808 5808 5808 5808 5808
5807 5807 5806 5806 5806 5806 5806 5805 5805 5804 5804 5803 5803 5803 5803 5803 5804 5804 5804 5804 5804 5805 5805 5805 5806 5806 5806 5806 5806 5806 5806 5806 5806 5806 5806 5805 5804 5804 5803 5803 5803 5803 5804
5803 5803 5802 5802 5802 5801 5801 5801 5800 5799 5799 5799 5798 5798 5798 5798 5799 5798 5798 5799 5799 5799 5799 5799 5800 5800 5801 5801 5801 5801 5801 5801 5801 5801 5801 5800 5800 5799 5798 5798 5799 5799 5799
5799 5798 5798 5797 5797 5797 5796 5796 5795 5794 5794 5794 5793 5793 5793 5793 5793 5793 5793 5793 5793 5793 5793 5794 5794 5795 5795 5795 5796 5796 5796 5796 5796 5796 5796 5795 5795 5794 5794 5793 5794 5794 5795
5794 5793 5793 5792 5792 5792 5791 5790 5790 5789 5789 5789 5788 5788 5788 5788 5787 5787 5787 5787 5787 5787 5787 5787 5788 5788 5789 5789 5790 5790 5790 5790 5790 5790 5790 5790 5790 5789 5789 5788 5788 5789 5789
5789 5789 5788 5788 5787 5787 5786 5785 5784 5784 5783 5783 5783 5782 5782 5782 5782 5781 5781 5780 5780 5780 5780 5781 5781 5782 5782 5783 5783 5784 5784 5784 5784 5784 5784 5784 5784 5783 5783 5783 5783 5783 5783
5784 5783 5783 5782 5781 5781 5780 5779 5778 5778 5777 5777 5777 5777 5776 5776 5775 5775 5775 5774 5774 5774 5774 5774 5774 5775 5776 5776 5777 5777 5778 5778 5778 5778 5778 5778 5778 5777 5777 5777 5777 5777 5777
5778 5778 5777 5776 5775 5774 5774 5773 5772 5772 5771 5771 5771 5771 5771 5770 5769 5769 5768 5768 5767 5767 5767 5767 5768 5768 5769 5769 5770 5771 5771 5771 5771 5771 5771 5771 5771 5771 5770 5770 5770 5770 5770
5773 5772 5771 5770 5769 5768 5767 5767 5766 5765 5765 5765 5764 5764 5764 5764 5763 5763 5762 5761 5761 5761 5761 5761 5761 5761 5762 5763 5763 5764 5764 5765 5765 5765 5765 5765 5764 5764 5764 5763 5763 5763 5763
5766 5765 5765 5764 5763 5762 5761 5760 5760 5759 5759 5758 5758 5758 5758 5757 5757 5756 5755 5755 5754 5754 5754 5754 5754 5755 5755 5756 5756 5757 5758 5758 5758 5758 5758 5758 5757 5757 5757 5756 5756 5756 5756
5760 5759 5758 5757 5756 5755 5754 5754 5753 5752 5752 5751 5751 5751 5750 5750 5750 5749 5749 5748 5748 5748 5747 5748 5748 5748 5748 5748 5749 5749 5750 5751 5751 5751 5751 5750 5750 5750 5749 5749 5749 5749 5748
5753 5752 5751 5750 5749 5748 5747 5747 5746 5745 5745 5744 5744 5743 5743 5742 5742 5742 5742 5742 5741 5741 5741 5740 5740 5741 5741 5741 5742 5742 5743 5743 5743 5743 5743 5743 5743 5742 5742 5742 5741 5741 5741
5745 5744 5743 5742 5742 5741 5740 5739 5738 5738 5737 5736 5736 5735 5735 5735 5734 5734 5734 5734 5734 5734 5734 5733 5733 5733 5734 5734 5734 5735 5735 5735 5735 5735 5735 5735 5735 5735 5734 5734 5734 5734 5734
5738 5737 5736 5735 5734 5733 5732 5731 5731 5730 5729 5729 5728 5727 5727 5726 5726 5726 5726 5726 5726 5726 5726 5726 5725 5726 5726 5726 5727 5727 5727 5728 5728 5728 5728 5727 5727 5727 5727 5727 5727 5727 5726
5730 5729 5728 5727 5726 5725 5724 5723 5722 5722 5721 5721 5720 5719 5718 5718 5718 5717 5717 5717 5717 5717 5717 5717 5718 5718 5718 5719 5719 5719 5720 5720 5720 5720 5720 5720 5720 5719 5719 5719 5719 5719 5719
5723 5722 5721 5720 5718 5717 5716 5715 5714 5713 5712 5711 5710 5710 5709 5709 5709 5709 5709 5709 5709 5709 5709 5709 5710 5710 5710 5711 5711 5711 5711 5712 5712 5712 5712 5712 5711 5711 5711 5711 5711 5711 5711
5715 5714 5713 5711 5710 5708 5707 5706 5705 5704 5703 5702 5701 5701 5700 5700 5700 5700 5700 5700 5700 5700 5701 5701 5701 5701 5702 5702 5702 5703 5703 5704 5704 5704 5704 5704 5703 5703 5703 5703 5703 5703 5703
5707 5705 5704 5703 5701 5700 5698 5697 5696 5695 5694 5693 5692 5691 5691 5691 5690 5690 5690 5691 5691 5691 5692 5692 5693 5693 5693 5693 5694 5694 5695 5695 5696 5696 5696 5696 5695 5695 5695 5695 5695 5695 5695
5698 5697 5695 5694 5692 5691 5689 5688 5687 5685 5684 5683 5683 5682 5682 5681 5681 5681 5681 5682 5682 5682 5683 5683 5684 5684 5684 5684 5685 5686 5686 5687 5687 5687 5687 5687 5687 5687 5687 5687 5687 5687 5687
5690 5688 5686 5685 5683 5682 5680 5679 5677 5676 5675 5674 5673 5673 5672 5672 5672 5672 5672 5672 5672 5672 5673 5674 5674 5675 5675 5676 5676 5677 5677 5678 5679 5679 5679 5679 5679 5679 5679 5679 5679 5679 5679
5681 5679 5677 5675 5674 5672 5671 5669 5668 5667 5666 5665 5664 5664 5663 5663 5662 5662 5662 5662 5663 5663 5663 5664 5664 5665 5666 5666 5667 5668 5668 5669 5670 5670 5670 5671 5670 5670 5670 5670 5670 5670 5670
Wind_Speed
11 11 11 11 11 12 13 13 13 13 13 13 13 12 12 12 13 13 12 12 11 11 11 11 11 11 11 11 11 11 10 10 10 10 11 11 11 12 12 13 13 14 14
12 12 12 12 12 13 14 14 14 14 14 13 13 13 13 13 13 13 13 13 13 12 12 12 12 12 12 12 12 12 11 11 11 11 12 12 12 12 13 13 13 14 14
12 12 12 12 13 13 14 14 14 14 13 13 14 14 14 14 14 14 15 15 15 14 14 13 13 13 13 13 13 13 13 12 12 12 12 12 13 13 13 14 14 14 14
13 13 13 13 13 13 13 14 14 15 14 15 15 15 14 14 15 15 15 15 16 15 15 15 15 14 14 14 14 14 14 14 13 14 14 14 14 14 14 15 15 15 15
13 13 13 14 14 14 14 15 15 16 16 15 15 15 15 15 16 16 16 16 16 16 16 16 16 15 15 15 14 15 15 15 15 15 15 15 15 15 15 15 15 15 15
13 13 14 14 15 15 16 16 16 16 16 16 16 16 16 16 17 17 17 17 17 17 17 17 17 17 16 16 16 16 16 16 16 16 16 15 15 16 16 16 16 16 16
14 14 14 15 15 15 16 17 17 16 17 17 17 16 16 17 17 18 18 18 18 18 18 18 17 18 17 17 17 17 17 17 17 17 16 16 16 16 16 16 16 16 16
15 15 15 15 16 16 16 17 17 17 17 17 16 17 17 17 17 18 18 18 19 19 18 18 18 18 18 18 18 18 18 18 18 18 18 18 17 17 17 17 17 16 17
15 15 16 16 16 17 17 17 18 17 17 17 17 17 17 17 18 18 19 19 19 20 20 20 20 20 19 20 19 19 19 19 19 19 19 18 18 17 17 18 17 17 18
16 16 17 17 17 18 18 18 18 18 18 18 18 18 18 18 18 19 20 20 20 21 21 21 21 21 20 20 20 20 20 20 20 20 20 20 19 19 19 19 19 19 19
17 18 18 18 18 18 18 19 18 18 19 19 19 19 19 20 20 20 20 20 21 21 21 21 21 22 21 21 20 20 20 21 21 21 21 21 21 20 20 21 20 20 21
18 18 18 19 19 19 19 19 18 19 19 19 20 20 20 21 21 21 21 21 21 21 21 21 21 22 22 21 20 20 21 21 21 22 22 22 22 22 21 22 22 22 21
19 19 19 19 19 19 19 19 19 19 19 20 20 21 21 21 21 21 21 21 21 21 21 21 22 22 21 21 21 21 21 21 22 22 22 23 23 23 23 23 23 23 23
20 20 21 20 20 20 20 20 20 20 20 21 21 22 22 22 22 22 22 22 21 21 21 21 22 22 22 22 22 21 21 22 22 22 23 23 23 23 23 24 24 24 24
22 22 22 22 21 21 21 21 21 22 22 22 22 23 23 24 24 23 22 22 22 23 23 23 22 22 22 22 22 22 22 22 22 23 23 23 23 24 23 24 24 24 24
23 23 22 22 22 22 22 22 23 23 23 23 23 24 25 25 24 24 24 23 23 23 23 23 23 23 23 22 22 23 23 23 24 24 24 24 24 23 24 24 24 23 23
25 24 24 23 23 23 23 23 23 24 25 25 25 26 26 26 25 26 25 24 24 24 24 24 24 24 23 23 24 24 24 24 24 24 25 25 24 24 24 23 23 23 23
25 25 25 25 24 24 25 25 25 25 26 26 27 27 27 27 27 27 27 27 26 26 25 25 25 24 24 24 24 24 25 24 24 24 25 25 25 24 24 23 23 23 23
27 26 26 26 27 27 26 26 27 27 27 27 28 28 28 28 28 28 28 28 28 27 27 27 26 26 26 25 25 25 25 25 25 25 25 25 25 25 24 24 23 23 24
27 27 27 27 27 27 27 27 27 28 28 28 28 29 29 29 29 29 29 29 28 28 27 27 27 27 26 26 26 26 26 26 25 25 26 26 25 25 24 24 24 24 25
27 27 27 28 28 28 28 28 28 28 29 29 29 29 30 30 30 29 28 28 28 27 27 27 26 26 26 27 27 26 26 25 25 25 26 26 25 25 25 25 25 24 24
27 28 28 28 29 29 29 29 29 29 29 30 30 29 30 30 30 29 29 29 29 28 28 27 27 27 27 27 27 27 26 26 26 26 26 26 26 25 25 25 25 25 25
28 28 29 30 30 30 30 30 30 30 30 30 30 30 30 30 30 30 29 30 30 30 30 29 29 28 28 28 27 27 27 26 26 26 27 26 26 26 26 26 25 25 25
29 29 29 30 30 30 30 31 31 31 30 29 29 30 30 31 31 30 30 31 31 31 30 30 29 29 29 29 28 28 26 26 27 27 26 26 25 25 26 26 26 26 26
30 30 31 31 30 30 30 30 30 30 30 30 29 29 29 30 30 31 30 31 31 31 30 30 30 30 30 29 29 29 29 28 28 28 27 26 26 26 26 27 27 27 26
31 31 31 31 30 30 30 30 31 31 30 30 30 29 29 30 30 30 29 29 29 29 30 30 30 30 30 30 29 30 29 28 28 28 27 27 27 27 27 26 27 27 28
Wind_Direction
259 262 263 268 266 270 273 274 268 268 267 265 266 265 264 262 260 260 260 262 263 267 271 272 275 275 271 268 267 265 267 272 271 271 274 277 277 275 274 272 272 271 270
261 263 265 267 270 274 275 273 267 267 264 262 263 263 262 262 260 259 260 261 261 265 270 273 273 274 273 267 266 264 266 269 270 270 275 277 280 279 276 274 274 273 271
264 265 265 267 271 274 274 270 270 268 265 264 264 264 263 263 262 260 259 262 264 264 266 270 272 272 273 270 268 267 265 267 268 272 275 277 278 279 279 276 275 273 269
264 266 267 268 270 272 272 271 270 269 267 265 264 264 264 263 263 264 263 264 262 262 265 268 270 272 271 270 269 267 268 269 270 273 274 275 278 278 278 278 277 272 270
265 267 268 269 269 270 272 273 273 271 269 264 264 263 263 262 263 265 265 264 262 263 265 268 268 269 268 269 270 268 269 272 272 274 274 276 276 277 277 276 274 272 272
269 270 271 271 271 270 271 272 275 275 274 268 267 266 264 263 264 265 265 264 263 264 266 267 266 266 267 267 268 269 269 271 272 274 275 275 276 276 275 273 272 270 269
269 270 272 272 273 274 275 275 278 277 276 272 268 267 265 264 265 266 266 266 264 265 266 266 265 264 266 266 266 267 268 270 271 273 275 276 275 275 274 273 272 270 268
273 276 277 274 274 274 276 277 277 275 275 275 273 270 268 267 267 267 267 267 266 265 265 263 264 264 264 266 267 267 267 268 270 272 274 275 275 274 273 272 271 270 269
274 278 277 275 273 273 275 276 276 273 272 274 276 273 268 267 267 267 268 269 267 265 264 263 263 263 263 265 267 266 267 268 270 271 273 274 275 274 274 272 270 269 269
275 278 278 275 273 273 272 272 273 274 272 272 272 269 265 266 267 269 269 270 269 267 264 264 263 263 263 264 266 268 267 269 270 269 271 272 274 274 273 272 270 270 269
274 276 277 277 275 274 273 272 273 272 271 271 268 267 266 266 267 269 269 270 270 268 266 265 265 264 263 264 265 268 269 270 270 269 269 271 272 273 273 271 270 270 270
275 275 275 276 275 274 273 271 271 272 271 267 266 266 266 267 268 269 270 271 270 269 266 266 266 266 265 264 264 266 269 272 272 270 270 270 272 273 273 271 271 272 273
275 275 276 277 277 275 274 271 270 270 269 267 266 267 266 268 269 270 271 271 269 268 267 267 267 266 265 265 265 265 267 270 272 273 272 271 271 273 273 272 272 273 273
276 276 277 278 276 274 273 274 273 270 269 268 268 266 267 270 271 271 271 269 267 267 268 267 267 266 266 266 266 266 266 269 271 274 273 272 272 274 274 272 271 271 272
277 279 279 277 276 275 274 273 272 270 268 267 268 268 268 270 271 272 271 269 268 268 267 268 268 269 268 268 268 267 267 269 271 273 273 273 274 274 275 273 272 271 270
278 279 277 277 276 277 274 271 270 270 269 268 268 268 269 269 268 269 270 271 270 269 269 269 269 269 269 268 268 268 269 270 272 273 274 274 273 274 273 274 272 271 270
278 279 278 277 277 276 275 272 270 269 269 268 268 268 268 267 266 267 268 268 269 270 271 271 271 270 268 268 269 269 270 271 273 275 275 275 274 273 273 273 272 271 270
278 278 277 277 277 277 275 273 270 269 269 269 269 269 269 267 266 265 266 267 268 268 270 271 271 270 268 269 270 269 271 272 275 275 275 274 274 273 272 272 271 271 270
277 279 279 276 275 275 276 275 272 270 270 270 270 269 269 267 265 266 266 266 267 268 269 270 270 269 269 270 269 269 271 272 274 275 274 274 273 272 271 270 270 270 271
277 278 279 278 277 277 277 277 276 274 273 273 273 270 268 267 266 266 265 265 266 268 269 270 270 269 269 268 268 269 270 270 272 273 273 272 271 270 270 268 269 270 271
279 279 280 279 279 279 278 278 277 276 275 274 274 271 268 267 267 266 265 265 265 266 268 268 268 269 270 268 267 267 269 270 270 271 271 270 269 268 268 268 269 268 269
282 281 280 280 281 280 280 278 277 277 276 274 274 273 269 268 268 267 265 264 264 266 267 268 268 268 268 268 267 266 267 267 268 269 269 268 268 267 267 268 268 268 268
283 283 282 281 282 282 281 280 279 278 276 275 274 273 272 270 269 269 267 266 266 266 267 268 269 269 269 268 266 266 266 265 266 267 267 266 266 266 266 267 267 268 269
284 285 284 283 283 283 282 281 279 279 278 276 275 274 273 270 269 268 268 268 267 267 267 268 268 267 268 267 265 265 265 264 265 266 265 265 265 265 266 266 266 267 267
285 285 285 284 283 283 283 282 280 278 277 276 275 273 272 271 270 269 269 268 268 268 269 268 267 267 267 268 267 267 265 266 266 265 264 264 265 266 267 266 265 266 267
286 287 286 284 284 284 283 282 280 279 277 276 275 274 273 272 271 270 268 267 268 269 270 268 267 267 267 267 267 267 266 267 267 266 266 265 266 267 267 267 267 268 269